User: anonymous   Login
Location: Armidale
(30.5016°S, 151.6662°E)
Time: 12:07:16
(UTC+10:00)
Language:

STARS - Orbit

View from above orbital plane
View from above orbital plane
View from above satellite
View from above satellite

Ground track
Ground track

The orbit data is extracted from the following two-line orbital elements,

1 33498U 09002G   21216.08176044  .00000201  00000-0  34347-4 0  9998
2 33498  98.2077  97.1566 0010507 186.1523 173.9561 14.79388090674508
Epoch (UTC): 04 August 2021 01:57:44
Eccentricity: 0.0010507
inclination: 98.2077°
perigee height: 624 km
apogee height: 638 km
right ascension of ascending node: 97.1566°
argument of perigee: 186.1523°
revolutions per day: 14.79388090
mean anomaly at epoch: 173.9561°
orbit number at epoch: 67450

The dashed part of the orbit path shows where the satellite is in the earth's shadow,  

DLR